Flag for U.S.A. Weather past 2 weeks in Tucson, Arizona, U.S.A.

Now
46 °F

Clear.


Feels Like: 44 °F
Forecast: 45 / 65 °F
Wind: 6 mph from Southeast

Location: Davis-Monthan Air Force Base

Current Time: Dec 24, 2014 at 8:41:23 PM

Latest Report: Dec 24, 2014 at 8:03 PM


Visibility: 6 mi

Pressure: 29.93 "Hg

Humidity: 50%

Dew point: 28 °F

Location of TucsonLocation

Historic Weather in Tucson — Graph

°F

Tucson temperature yesterday

Maximum temperature yesterday: 60 °F (at 2:58 PM)
Minimum temperature yesterday: 42 °F (at 3:58 AM)
Average temperature yesterday: 51 °F

Past Weeks' High & Low Weather Summary

 TemperatureHumidityPressure
High76 °F (Dec 12, 1:58 PM)100% (Dec 13, 12:58 PM)30.22 "Hg (Dec 13, 12:58 PM)
Low35 °F (Dec 24, 4:58 AM)11% (Dec 24, 2:58 PM)29.85 "Hg (Dec 22, 3:58 PM)
Average51 °F66%30.02 "Hg
* Reported Dec 9 6:58 PM — Dec 24 6:58 PM, Tucson, Weather by CustomWeather, © 2014

Note: Actual official high and low records may vary slightly from our data, if they occured in-between our weather recording intervals... More about our weather records

Advertising

Tucson weather history for previous 24 hours

 ConditionsComfort  
Time TempWeatherWind HumidityBarometerVisibility
6:58 PM
Dec 24
50 °FClear.No wind39%29.93 "Hg10 mi
5:58 PM56 °FClear.9 mph27%29.93 "Hg10 mi
4:58 PM60 °FSunny.5 mph23%29.93 "Hg10 mi
3:58 PM64 °FSunny.2 mph14%29.93 "Hg8 mi
2:58 PM64 °FSunny.8 mph11%29.93 "Hg10 mi
1:58 PM63 °FSunny.5 mph12%29.96 "Hg10 mi
12:58 PM61 °FSunny.12 mph13%29.97 "Hg10 mi
11:58 AM58 °FSunny.14 mph16%30.03 "Hg10 mi
10:58 AM54 °FSunny.9 mph19%30.09 "Hg10 mi
9:58 AM50 °FSunny.10 mph25%30.11 "Hg10 mi
8:58 AM45 °FSunny.10 mph30%30.13 "Hg10 mi
7:58 AM41 °FSunny.12 mph37%30.12 "Hg10 mi
6:58 AM35 °FClear.5 mph56%30.12 "Hg10 mi
5:58 AM36 °FClear.8 mph51%30.11 "Hg10 mi
4:58 AM35 °FClear.1 mph59%30.12 "Hg10 mi
3:58 AM37 °FClear.7 mph48%30.11 "Hg10 mi
2:58 AM39 °FClear.3 mph46%30.11 "Hg10 mi
1:58 AM38 °FClear.8 mph48%30.11 "Hg10 mi
12:58 AM42 °FClear.8 mph37%30.10 "Hg10 mi
11:58 PM
Dec 23
42 °FClear.5 mph41%30.11 "Hg10 mi
10:58 PM44 °FClear.2 mph39%30.10 "Hg10 mi
9:58 PM51 °FClear.5 mph21%30.08 "Hg10 mi
8:58 PM51 °FClear.1 mph18%30.09 "Hg10 mi
Weather by CustomWeather, © 2014

See weather overviewHow to use our weather pages